DBEEP EDDP-EDDF

Flight info

Callsign DBEEP
Flight time 0h 40m
Altitude 22000
Route ORTAG5Q/08L ORTAG T177 ODIPI/N0468F210 T157 KERAX KERAX5A
Aircraft C750/M-SBDFGHIRWYZ/IB1

Departure

Time 2026-05-07 18:01
Airport Leipzig/Halle Airport (EDDP)

Arrival

Time 2026-05-07 18:41
Airport Frankfurt Main Airport (EDDF)
Time Latitude Longitude Altitude Speed Heading
2026-05-07 17:11 51.42055 12.21288 428 ft 0 kts 195°
2026-05-07 17:56 51.42009 12.21267 428 ft 12 kts 195°
2026-05-07 17:56 51.41942 12.21218 422 ft 3 kts 285°
2026-05-07 17:56 51.41958 12.21145 423 ft 14 kts 287°
2026-05-07 17:57 51.41995 12.20950 422 ft 19 kts 303°
2026-05-07 17:57 51.42074 12.20926 422 ft 20 kts 16°
2026-05-07 17:57 51.42301 12.21028 423 ft 26 kts 15°
2026-05-07 17:57 51.42468 12.21100 430 ft 24 kts 15°
2026-05-07 17:58 51.42624 12.21169 432 ft 23 kts 15°
2026-05-07 17:58 51.42766 12.21233 432 ft 16 kts 15°
2026-05-07 17:58 51.42825 12.21259 426 ft 6 kts 15°
2026-05-07 17:58 51.42867 12.21278 432 ft 6 kts 15°
2026-05-07 17:59 51.42918 12.21317 424 ft 10 kts 42°
2026-05-07 17:59 51.42969 12.21408 428 ft 11 kts 48°
2026-05-07 17:59 51.43016 12.21490 428 ft 10 kts 46°
2026-05-07 17:59 51.43065 12.21572 423 ft 12 kts 45°
2026-05-07 18:00 51.43130 12.21686 429 ft 13 kts 62°
2026-05-07 18:00 51.43140 12.21875 430 ft 45 kts 85°
2026-05-07 18:00 51.43190 12.22962 440 ft 137 kts 85°
2026-05-07 18:00 51.43250 12.24515 1016 ft 142 kts 85°
2026-05-07 18:01 51.43538 12.26005 1637 ft 149 kts 54°
2026-05-07 18:01 51.44322 12.27213 2065 ft 167 kts 42°
2026-05-07 18:01 51.45262 12.28561 2393 ft 197 kts 36°
2026-05-07 18:01 51.46516 12.29664 3088 ft 209 kts 22°
2026-05-07 18:02 51.49395 12.30203 5003 ft 215 kts 352°
2026-05-07 18:02 51.50838 12.29506 5938 ft 219 kts 336°
2026-05-07 18:02 51.52156 12.28212 6849 ft 224 kts 327°
2026-05-07 18:03 51.53459 12.26801 7823 ft 227 kts 327°
2026-05-07 18:03 51.54778 12.25435 8861 ft 229 kts 328°
2026-05-07 18:03 51.56133 12.24034 9833 ft 233 kts 328°
2026-05-07 18:03 51.57499 12.22605 10645 ft 237 kts 327°
2026-05-07 18:04 51.58894 12.21147 11459 ft 240 kts 327°
2026-05-07 18:04 51.60306 12.19672 12361 ft 243 kts 327°
2026-05-07 18:04 51.61747 12.18174 13186 ft 255 kts 328°
2026-05-07 18:04 51.63325 12.16579 13575 ft 282 kts 328°
2026-05-07 18:05 51.64972 12.14605 13737 ft 312 kts 314°
2026-05-07 18:05 51.66023 12.11353 13719 ft 349 kts 286°
2026-05-07 18:05 51.66018 12.07317 13951 ft 372 kts 259°
2026-05-07 18:05 51.65277 12.03371 14912 ft 367 kts 255°
2026-05-07 18:06 51.64635 11.99370 15581 ft 372 kts 258°
2026-05-07 18:06 51.64021 11.95296 16301 ft 376 kts 257°
2026-05-07 18:06 51.63253 11.91233 17036 ft 382 kts 251°
2026-05-07 18:06 51.62228 11.87263 17802 ft 386 kts 247°
2026-05-07 18:07 51.61152 11.83313 18544 ft 390 kts 248°
2026-05-07 18:07 51.60156 11.79249 19250 ft 394 kts 250°
2026-05-07 18:07 51.59172 11.75108 19989 ft 397 kts 250°
2026-05-07 18:07 51.58191 11.71030 20573 ft 390 kts 250°
2026-05-07 18:08 51.57183 11.66904 21080 ft 399 kts 250°
2026-05-07 18:08 51.56161 11.62711 21435 ft 405 kts 250°
2026-05-07 18:08 51.55138 11.58521 21694 ft 403 kts 249°
2026-05-07 18:08 51.53696 11.54656 21875 ft 406 kts 234°
2026-05-07 18:09 51.51956 11.51036 22083 ft 410 kts 233°
2026-05-07 18:09 51.50256 11.47424 22099 ft 413 kts 234°
2026-05-07 18:09 51.48507 11.43638 22080 ft 430 kts 234°
2026-05-07 18:09 51.46671 11.39721 22093 ft 444 kts 234°
2026-05-07 18:10 51.44778 11.35741 22082 ft 453 kts 233°
2026-05-07 18:10 51.42862 11.31697 22080 ft 457 kts 234°
2026-05-07 18:10 51.40938 11.27606 22085 ft 459 kts 234°
2026-05-07 18:10 51.39012 11.23525 22082 ft 460 kts 234°
2026-05-07 18:11 51.37072 11.19445 22077 ft 461 kts 233°
2026-05-07 18:11 51.35784 11.16741 22074 ft 461 kts 233°
2026-05-07 18:11 51.33188 11.11278 22071 ft 461 kts 234°
2026-05-07 18:11 51.31244 11.07189 22071 ft 461 kts 233°
2026-05-07 18:12 51.29299 11.03115 22077 ft 461 kts 233°
2026-05-07 18:12 51.27370 10.99091 22066 ft 454 kts 233°
2026-05-07 18:12 51.25450 10.95077 22067 ft 455 kts 233°
2026-05-07 18:12 51.23533 10.91067 22067 ft 455 kts 233°
2026-05-07 18:13 51.21607 10.87057 22081 ft 455 kts 233°
2026-05-07 18:13 51.19677 10.83052 22070 ft 455 kts 233°
2026-05-07 18:13 51.17749 10.79048 22070 ft 455 kts 233°
2026-05-07 18:13 51.15820 10.75044 22070 ft 455 kts 233°
2026-05-07 18:14 51.13922 10.71120 22065 ft 443 kts 233°
2026-05-07 18:14 51.12050 10.67262 22071 ft 430 kts 233°
2026-05-07 18:14 51.10231 10.63509 22057 ft 428 kts 233°
2026-05-07 18:14 51.08412 10.59754 22065 ft 428 kts 233°
2026-05-07 18:15 51.06587 10.55996 22065 ft 430 kts 233°
2026-05-07 18:15 51.04754 10.52232 22070 ft 430 kts 233°
2026-05-07 18:15 51.02919 10.48469 22056 ft 430 kts 233°
2026-05-07 18:15 51.01087 10.44714 22062 ft 430 kts 233°
2026-05-07 18:16 50.99256 10.40969 22059 ft 429 kts 233°
2026-05-07 18:16 50.97422 10.37228 22060 ft 429 kts 233°
2026-05-07 18:16 50.95587 10.33485 22062 ft 429 kts 233°
2026-05-07 18:16 50.93754 10.29744 22061 ft 429 kts 233°
2026-05-07 18:17 50.91942 10.26054 22065 ft 429 kts 233°
2026-05-07 18:17 50.90081 10.22279 22059 ft 429 kts 232°
2026-05-07 18:17 50.88245 10.18556 22054 ft 429 kts 232°
2026-05-07 18:17 50.86414 10.14821 22059 ft 428 kts 233°
2026-05-07 18:18 50.84602 10.11160 22058 ft 429 kts 232°
2026-05-07 18:18 50.82732 10.07405 22058 ft 429 kts 232°
2026-05-07 18:18 50.80909 10.03728 22060 ft 429 kts 232°
2026-05-07 18:18 50.79071 10.00015 22059 ft 429 kts 232°
2026-05-07 18:19 50.77227 9.96308 22065 ft 429 kts 232°
2026-05-07 18:19 50.75380 9.92608 22074 ft 429 kts 232°
2026-05-07 18:19 50.73532 9.88902 22064 ft 429 kts 232°
2026-05-07 18:19 50.71683 9.85196 22063 ft 429 kts 232°
2026-05-07 18:20 50.69830 9.81494 21800 ft 430 kts 232°
2026-05-07 18:20 50.67983 9.77815 21240 ft 425 kts 232°
2026-05-07 18:20 50.66179 9.74218 20688 ft 422 kts 232°
2026-05-07 18:20 50.64367 9.70606 20128 ft 418 kts 232°
2026-05-07 18:21 50.62565 9.67028 19589 ft 415 kts 232°
2026-05-07 18:21 50.60774 9.63475 19043 ft 412 kts 232°
2026-05-07 18:21 50.58998 9.59955 18501 ft 409 kts 232°
2026-05-07 18:21 50.57231 9.56454 17925 ft 405 kts 232°
2026-05-07 18:22 50.55480 9.52990 17393 ft 403 kts 232°
2026-05-07 18:22 50.54913 9.51871 17218 ft 402 kts 232°
2026-05-07 18:22 50.52009 9.46140 16334 ft 397 kts 232°
2026-05-07 18:22 50.50313 9.42799 15818 ft 395 kts 232°
2026-05-07 18:23 50.48609 9.39449 15298 ft 390 kts 232°
2026-05-07 18:23 50.46913 9.36121 14781 ft 388 kts 232°
2026-05-07 18:23 50.45229 9.32818 14271 ft 386 kts 232°
2026-05-07 18:23 50.43556 9.29535 13748 ft 384 kts 232°
2026-05-07 18:24 50.41916 9.26267 13207 ft 379 kts 235°
2026-05-07 18:24 50.40640 9.22671 13062 ft 379 kts 245°
2026-05-07 18:24 50.39561 9.18908 13074 ft 379 kts 247°
2026-05-07 18:24 50.38447 9.15176 13074 ft 379 kts 244°
2026-05-07 18:25 50.37628 9.12757 13073 ft 379 kts 242°
2026-05-07 18:25 50.36410 9.09104 13074 ft 379 kts 244°
2026-05-07 18:25 50.35217 9.05410 13073 ft 379 kts 244°
2026-05-07 18:25 50.34007 9.01745 13070 ft 379 kts 243°
2026-05-07 18:26 50.32776 8.98097 13065 ft 379 kts 243°
2026-05-07 18:26 50.31542 8.94416 12833 ft 376 kts 243°
2026-05-07 18:26 50.30346 8.90807 12562 ft 374 kts 243°
2026-05-07 18:26 50.29144 8.87205 12299 ft 373 kts 243°
2026-05-07 18:27 50.27941 8.83618 12040 ft 372 kts 243°
2026-05-07 18:27 50.26742 8.80046 11782 ft 371 kts 243°
2026-05-07 18:27 50.25544 8.76474 11527 ft 369 kts 243°
2026-05-07 18:27 50.24374 8.72998 11274 ft 346 kts 243°
2026-05-07 18:28 50.23302 8.69831 10937 ft 315 kts 243°
2026-05-07 18:28 50.22325 8.66935 10554 ft 294 kts 243°
2026-05-07 18:28 50.21393 8.64165 10293 ft 285 kts 243°
2026-05-07 18:28 50.20472 8.61436 10040 ft 284 kts 243°
2026-05-07 18:29 50.19553 8.58720 9779 ft 282 kts 243°
2026-05-07 18:29 50.18636 8.56013 9507 ft 281 kts 243°
2026-05-07 18:29 50.17723 8.53320 9241 ft 280 kts 243°
2026-05-07 18:29 50.16812 8.50635 8978 ft 279 kts 243°
2026-05-07 18:30 50.15906 8.47969 8715 ft 278 kts 243°
2026-05-07 18:30 50.15002 8.45313 8456 ft 277 kts 243°
2026-05-07 18:30 50.14104 8.42671 8201 ft 276 kts 243°
2026-05-07 18:30 50.13203 8.40027 7941 ft 275 kts 243°
2026-05-07 18:31 50.12308 8.37406 7691 ft 273 kts 243°
2026-05-07 18:31 50.11418 8.34801 7439 ft 272 kts 243°
2026-05-07 18:31 50.10525 8.32188 7082 ft 272 kts 243°
2026-05-07 18:31 50.09652 8.29637 6571 ft 266 kts 243°
2026-05-07 18:32 50.08781 8.27094 5790 ft 266 kts 243°
2026-05-07 18:32 50.07906 8.24542 5172 ft 266 kts 243°
2026-05-07 18:32 50.07045 8.22021 4811 ft 262 kts 243°
2026-05-07 18:32 50.06193 8.19508 4554 ft 264 kts 243°
2026-05-07 18:33 50.05334 8.16981 4301 ft 264 kts 243°
2026-05-07 18:33 50.04477 8.14456 4057 ft 264 kts 243°
2026-05-07 18:33 50.03440 8.12143 3946 ft 264 kts 221°
2026-05-07 18:33 50.01750 8.11084 3933 ft 266 kts 185°
2026-05-07 18:34 49.99923 8.11506 4026 ft 268 kts 165°
2026-05-07 18:34 49.98176 8.12287 4026 ft 249 kts 163°
2026-05-07 18:34 49.96597 8.13026 4011 ft 229 kts 161°
2026-05-07 18:34 49.95391 8.14546 3903 ft 225 kts 119°
2026-05-07 18:35 49.95027 8.16820 3973 ft 220 kts 94°
2026-05-07 18:35 49.94952 8.19210 4023 ft 223 kts 87°
2026-05-07 18:35 49.95178 8.21581 4008 ft 218 kts 72°
2026-05-07 18:35 49.95666 8.23710 4013 ft 205 kts 67°
2026-05-07 18:36 49.96165 8.25788 4017 ft 205 kts 68°
2026-05-07 18:36 49.96660 8.27865 3807 ft 203 kts 68°
2026-05-07 18:36 49.97138 8.29879 3531 ft 192 kts 68°
2026-05-07 18:36 49.97590 8.31766 3278 ft 181 kts 67°
2026-05-07 18:37 49.98026 8.33577 3041 ft 181 kts 68°
2026-05-07 18:37 49.98460 8.35400 2804 ft 177 kts 68°
2026-05-07 18:37 49.98877 8.37150 2557 ft 173 kts 68°
2026-05-07 18:37 49.99292 8.38891 2333 ft 171 kts 68°
2026-05-07 18:38 49.99708 8.40636 2093 ft 170 kts 68°
2026-05-07 18:38 50.00118 8.42354 1866 ft 169 kts 69°
2026-05-07 18:38 50.00512 8.44005 1611 ft 152 kts 69°
2026-05-07 18:38 50.00854 8.45428 1411 ft 130 kts 69°
2026-05-07 18:39 50.01147 8.46663 1250 ft 120 kts 69°
2026-05-07 18:39 50.01432 8.47859 1091 ft 117 kts 69°
2026-05-07 18:39 50.01712 8.49040 939 ft 116 kts 70°
2026-05-07 18:39 50.01981 8.50223 794 ft 116 kts 70°
2026-05-07 18:40 50.02265 8.51394 659 ft 114 kts 69°
2026-05-07 18:40 50.02537 8.52530 505 ft 111 kts 69°
2026-05-07 18:40 50.02808 8.53638 355 ft 111 kts 69°
2026-05-07 18:40 50.03037 8.54596 331 ft 65 kts 69°
2026-05-07 18:41 50.03170 8.55159 341 ft 48 kts 70°
2026-05-07 18:41 50.03246 8.55541 339 ft 30 kts 84°
2026-05-07 18:41 50.03235 8.55793 348 ft 16 kts 99°
2026-05-07 18:41 50.03224 8.55891 343 ft 5 kts 105°
2026-05-07 18:42 50.03200 8.55915 343 ft 5 kts 177°
2026-05-07 18:42 50.03164 8.55903 342 ft 5 kts 209°
2026-05-07 18:42 50.03147 8.55874 346 ft 3 kts 249°
2026-05-07 18:42 50.03130 8.55806 339 ft 10 kts 250°
2026-05-07 18:43 50.03105 8.55694 340 ft 12 kts 251°
2026-05-07 18:43 50.03074 8.55560 339 ft 18 kts 250°
2026-05-07 18:43 50.03025 8.55349 337 ft 21 kts 250°
2026-05-07 18:43 50.02930 8.55278 339 ft 14 kts 185°
2026-05-07 18:44 50.02885 8.55152 338 ft 19 kts 248°
2026-05-07 18:44 50.02823 8.54894 336 ft 29 kts 249°
2026-05-07 18:44 50.02751 8.54596 336 ft 29 kts 249°
2026-05-07 18:44 50.02684 8.54298 334 ft 29 kts 255°
2026-05-07 18:45 50.02618 8.53994 333 ft 30 kts 249°
2026-05-07 18:45 50.02545 8.53689 333 ft 30 kts 249°
2026-05-07 18:45 50.02477 8.53403 332 ft 27 kts 249°
2026-05-07 18:45 50.02413 8.53150 332 ft 24 kts 255°
2026-05-07 18:46 50.02364 8.52934 330 ft 17 kts 250°
2026-05-07 18:46 50.02304 8.52829 332 ft 13 kts 181°
2026-05-07 18:46 50.02214 8.52830 332 ft 13 kts 179°
2026-05-07 18:46 50.02146 8.52877 331 ft 11 kts 98°
2026-05-07 18:47 50.02151 8.52992 332 ft 11 kts 86°
2026-05-07 18:47 50.02182 8.53085 332 ft 10 kts 21°
2026-05-07 18:47 50.02217 8.53162 331 ft 9 kts 70°
2026-05-07 18:47 50.02238 8.53257 331 ft 10 kts 70°
2026-05-07 18:48 50.02255 8.53326 330 ft 1 kts 69°
2026-05-07 18:48 50.02255 8.53328 330 ft 1 kts 69°
2026-05-07 18:48 50.02262 8.53354 331 ft 4 kts 69°
2026-05-07 18:48 50.02265 8.53367 331 ft 0 kts 69°
2026-05-07 18:49 50.02272 8.53394 330 ft 6 kts 68°
2026-05-07 18:49 50.02289 8.53414 329 ft 3 kts 357°
2026-05-07 18:50 50.02310 8.53404 331 ft 3 kts 339°
2026-05-07 18:50 50.02321 8.53397 329 ft 2 kts 339°
2026-05-07 18:50 50.02324 8.53395 329 ft 0 kts 339°